Location: Martz Observatory
(42.0083°N, 79.0667°W)
Time: 03:15:53
(UTC-04:00)

Cosmos 2228 Rocket - Pass Details

Date: 26 May 2018
Orbit: 618 x 652 km, 82.5° (Epoch: 21 June)

Event Time Altitude Azimuth Distance (km) Brightness Sun altitude
Rises 04:46:03 0° 343° (NNW) 2,982 6.9 -10.0°
Reaches altitude 10° 04:48:27 10° 335° (NNW) 2,065 5.9 -9.7°
Maximum altitude 04:52:38 36° 269° (W) 1,022 3.8 -9.1°
Drops below altitude 10° 04:56:47 10° 203° (SSW) 2,038 5.2 -8.5°
Enters shadow 04:57:40 - 199° (SSW) 2,368 5.5 -8.3°
